Regional Weather Roundup
Issued by NWS

Home | Current Version | Previous Version | Text Only | Print | Product List | Glossary Off
Versions: 1 2 3 4 5 6 7 8 9 10 11 12 13 14 15 16 17 18 19 20 21 22 23 24 25 26 27 28 29 30 31 32 33 34 35 36 37 38 39 40 41 42 43 44 45 46 47 48 49 50

000
ASUS43 KFSD 152110
RWRSD

WEATHER ROUNDUP FOR SOUTH DAKOTA
NATIONAL WEATHER SERVICE SIOUX FALLS SD
300 PM CST FRI DEC 15 2017

NOTE: "FAIR" INDICATES FEW OR NO CLOUDS BELOW 12,000 FEET WITH NO
SIGNIFICANT WEATHER AND/OR OBSTRUCTIONS TO VISIBILITY.


SDZ001>005-009-010-012>017-152200-
NORTHWEST AND NORTH CENTRAL SOUTH DAKOTA

CITY           SKY/WX    TMP DP  RH WIND       PRES   REMARKS
BUFFALO          N/A     47  22  37 W17       29.58F
FAITH            N/A     50  21  32 W21       29.64S
MOBRIDGE       CLOUDY    46  27  47 W8        29.59F
$$

SDZ012>016-024>037-041>051-057-063-072>074-152200-
SOUTHWEST AND SOUTH CENTRAL SOUTH DAKOTA

CITY           SKY/WX    TMP DP  RH WIND       PRES   REMARKS
RAPID CTY ARPT CLOUDY    56  16  20 E3        29.70F
PIERRE         CLOUDY    50  26  39 W14       29.64F
CUSTER         CLOUDY    44  10  25 W10       29.76F
ELLSWORTH AFB  CLOUDY    56  15  20 CALM      29.70S
PHILIP         CLOUDY    53  26  35 W17       29.68F
PINE RIDGE     CLOUDY    53  19  26 W13G20    29.74F
SPEARFISH      FAIR      54  12  19 W22G29    29.71F
WINNER         FAIR      48  32  53 SW10      29.71F
$$

SDZ004>011-016>023-039-040-152200-
NORTHEAST SOUTH DAKOTA

CITY           SKY/WX    TMP DP  RH WIND       PRES   REMARKS
ABERDEEN       CLOUDY    40  27  59 S9        29.64F
WATERTOWN      CLOUDY    36  29  75 SW9       29.66F
BROOKINGS      CLOUDY    39  26  59 SW9       29.70F
SISSETON         N/A     36  30  79 VRB3      29.67F
$$

SDZ017-020-022-023-036>040-048>070-152200-
SOUTHEAST SOUTH DAKOTA

CITY           SKY/WX    TMP DP  RH WIND       PRES   REMARKS
SIOUX FALLS    PTSUNNY   40  26  57 SW7       29.75F
HURON          CLOUDY    43  26  51 S13       29.68F
CHAMBERLAIN    CLOUDY    47  32  55 SW9       29.69F
MITCHELL       CLOUDY    43  27  53 S12       29.71F
YANKTON        CLOUDY    46  24  42 SW14      29.75F
$$

ABBREVIATIONS USED IN REMARKS
   TC - TEMPERATURE IN CELSIUS
  WCI - WIND CHILL INDEX
   HX - HEAT INDEX
  VSB - VISIBILITY





USA.gov is the U.S. government's official web portal to all federal, state and local government web resources and services.